K9UO Weather Reports


time (UTC)temp
C
wind
direction
speed
KPH
gust
KPH
rain 1hr
cm
rain 24hr
cm
rain mn
cm
humidity
%
barometer
mb
20260904135507 28 333 1.6 6.4 0.00 0.00 0.00 73 1016.3
20260904135004 28 213 1.6 8.0 0.00 0.00 0.00 73 1016.3
20260904134507 28 211 3.2 14.5 0.00 0.00 0.00 74 1016.2
20260904134007 27 313 3.2 14.5 0.00 0.00 0.00 73 1016.2
20260904133503 27 211 4.8 11.3 0.00 0.00 0.00 74 1016.2
20260904133018 27 279 3.2 11.3 0.00 0.00 0.00 75 1016.1
20260904132511 27 342 3.2 8.0 0.00 0.00 0.00 76 1016.1
20260904132011 27 207 3.2 8.0 0.00 0.00 0.00 77 1016.2
20260904131532 26 240 3.2 6.4 0.00 0.00 0.00 77 1016.1
20260904131011 26 238 3.2 6.4 0.00 0.00 0.00 79 1016.1
20260904130513 26 255 0.0 6.4 0.00 0.00 0.00 80 1016.1
20260904130028 26 201 1.6 4.8 0.00 0.00 0.00 80 1016.1
20260904125513 26 221 1.6 4.8 0.00 0.00 0.00 81 1016.1
20260904125003 25 200 3.2 4.8 0.00 0.00 0.00 81 1016.2
20260904124507 25 193 3.2 4.8 0.00 0.00 0.00 82 1016.3
20260904124004 25 211 1.6 3.2 0.00 0.00 0.00 82 1016.2
20260904123508 25 207 0.0 3.2 0.00 0.00 0.00 82 1016.2
20260904123011 25 207 1.6 3.2 0.00 0.00 0.00 82 1016.3
20260904122507 25 214 1.6 3.2 0.00 0.00 0.00 82 1016.3
20260904122013 25 217 1.6 1.6 0.00 0.00 0.00 82 1016.3
20260904121519 24 217 1.6 3.2 0.00 0.00 0.00 82 1016.3
20260904121011 24 217 0.0 3.2 0.00 0.00 0.00 82 1016.3
20260904120510 24 217 0.0 3.2 0.00 0.00 0.00 82 1016.2
20260904120026 24 217 0.0 3.2 0.00 0.00 0.00 82 1016.2
20260904115514 24 217 0.0 3.2 0.00 0.00 0.00 82 1016.1
20260904115015 24 217 1.6 3.2 0.00 0.00 0.00 82 1016.1
20260904114530 24 205 0.0 3.2 0.00 0.00 0.00 82 1015.9
20260904114004 24 215 0.0 3.2 0.00 0.00 0.00 82 1015.9
20260904113506 24 215 0.0 3.2 0.00 0.00 0.00 1015.7
20260904113009 24 215 1.6 3.2 0.00 0.00 0.00 81 1015.6
20260904112506 24 225 1.6 3.2 0.00 0.00 0.00 81 1015.5
20260904112007 24 209 1.6 6.4 0.00 0.00 0.00 80 1015.4
20260904111513 25 233 1.6 8.0 0.00 0.00 0.00 80 1015.2
20260904111008 25 220 3.2 9.7 0.00 0.00 0.00 80 1014.9
20260904110512 24 221 3.2 9.7 0.00 0.00 0.00 81 1014.7
20260904110025 24 219 4.8 9.7 0.00 0.00 0.00 81 1014.7
20260904105515 24 211 3.2 6.4 0.00 0.00 0.00 81 1014.8
20260904105013 24 209 1.6 4.8 0.00 0.00 0.00 81 1014.9
20260904104534 24 197 1.6 3.2 0.00 0.00 0.00 81 1014.9
20260904104016 24 215 0.0 3.2 0.00 0.00 0.00 81 1014.9
20260904103517 24 215 1.6 3.2 0.00 0.00 0.00 81 1014.9
20260904103008 24 230 1.6 3.2 0.00 0.00 0.00 81 1014.8
20260904102504 24 218 1.6 3.2 0.00 0.00 0.00 81 1014.8
20260904102006 24 219 0.0 3.2 0.00 0.00 0.00 81 1014.9
20260904101514 24 215 0.0 3.2 0.00 0.00 0.00 81 1014.7
20260904101007 24 215 1.6 3.2 0.00 0.00 0.00 81 1014.8
20260904100508 24 215 0.0 3.2 0.00 0.00 0.00 81 1014.9
20260904100018 24 215 1.6 3.2 0.00 0.00 0.00 81 1014.9
20260904095511 24 257 1.6 1.6 0.00 0.00 0.00 81 1014.9
20260904095013 24 273 0.0 3.2 0.00 0.00 0.00 81 1015.0
20260904094534 24 272 0.0 3.2 0.00 0.00 0.00 81 1015.0
20260904094012 24 273 0.0 3.2 0.00 0.00 0.00 81 1015.0
20260904093516 24 222 0.0 4.8 0.00 0.00 0.00 80 1015.0
20260904093031 25 220 0.0 4.8 0.00 0.00 0.00 80 1014.9
20260904092515 25 205 1.6 4.8 0.00 0.00 0.00 80 1014.9
20260904092004 25 211 1.6 4.8 0.00 0.00 0.00 80 1015.0
20260904091525 25 227 1.6 4.8 0.00 0.00 0.00 80 1015.1
20260904091006 25 217 1.6 4.8 0.00 0.00 0.00 80 1014.8
20260904090509 25 205 1.6 6.4 0.00 0.00 0.00 80 1014.7
20260904090015 25 225 3.2 6.4 0.00 0.00 0.00 79 1014.7
20260904085508 25 212 3.2 6.4 0.00 0.00 0.00 80 1014.7
20260904085013 25 216 3.2 6.4 0.00 0.00 0.00 80 1014.4
20260904084523 25 207 3.2 6.4 0.00 0.00 0.00 81 1014.4
20260904084014 25 207 3.2 6.4 0.00 0.00 0.00 81 1014.5
20260904083515 24 207 3.2 8.0 0.00 0.00 0.00 81 1014.5
20260904083033 24 215 3.2 8.0 0.00 0.00 0.00 81 1014.5
20260904082515 24 205 3.2 4.8 0.00 0.00 0.00 82 1014.6
20260904082012 24 222 1.6 4.8 0.00 0.00 0.00 83 1014.7
20260904081533 24 209 1.6 6.4 0.00 0.00 0.00 83 1014.8
20260904081004 24 194 3.2 6.4 0.00 0.00 0.00 1014.7
20260904080503 24 194 3.2 4.8 0.00 0.00 0.00 84 1014.9
20260904080014 23 202 3.2 3.2 0.00 0.00 0.00 84 1015.0
20260904075508 23 204 1.6 4.8 0.00 0.00 0.00 84 1015.1
20260904075011 23 204 3.2 4.8 0.00 0.00 0.00 84 1015.1
20260904074532 23 202 1.6 3.2 0.00 0.00 0.00 85 1015.1
20260904074013 23 202 1.6 4.8 0.00 0.00 0.00 85 1015.2
20260904073512 23 212 1.6 4.8 0.00 0.00 0.00 85 1015.2
20260904073031 23 200 1.6 3.2 0.00 0.00 0.00 86 1015.3
20260904072516 23 200 0.0 3.2 0.00 0.00 0.00 86 1015.4
20260904072014 23 200 1.6 3.2 0.00 0.00 0.00 86 1015.4
20260904071546 23 200 1.6 3.2 0.00 0.00 0.00 86 1015.4
20260904071019 23 200 1.6 3.2 0.00 0.00 0.00 86 1015.5
20260904070516 23 200 1.6 3.2 0.00 0.00 0.00 86 1015.6
20260904070011 23 200 0.0 1.6 0.00 0.00 0.00 86 1015.6
20260904065507 23 200 1.6 3.2 0.00 0.00 0.00 85 1015.7
20260904065007 23 200 0.0 3.2 0.00 0.00 0.00 86 1015.6
20260904064516 23 200 0.0 3.2 0.00 0.00 0.00 86 1015.7
20260904064008 23 200 0.0 3.2 0.00 0.00 0.00 86 1015.7
20260904063512 22 200 0.0 4.8 0.00 0.00 0.00 86 1015.7
20260904063037 22 200 1.6 4.8 0.00 0.00 0.00 86 1015.6
20260904062513 22 199 1.6 4.8 0.00 0.00 0.00 86 1015.6
20260904062015 22 205 1.6 3.2 0.00 0.00 0.00 86 1015.7
20260904061530 22 205 0.0 3.2 0.00 0.00 0.00 87 1015.8
20260904061018 22 205 0.0 3.2 0.00 0.00 0.00 86 1015.8
20260904060519 22 205 0.0 3.2 0.00 0.00 0.00 86 1015.9
20260904060033 22 205 0.0 3.2 0.00 0.00 0.00 86 1015.9
20260904055521 22 205 1.6 4.8 0.00 0.00 0.00 86 1016.0
20260904055007 22 195 3.2 4.8 0.00 0.00 0.00 86 1015.9
20260904054515 22 214 0.0 3.2 0.00 0.00 0.00 86 1016.0
20260904054001 22 206 1.6 3.2 0.00 0.00 0.00 86 1016.0
20260904053502 22 206 0.0 3.2 0.00 0.00 0.00 85 1016.0
20260904053005 22 206 1.6 3.2 0.00 0.00 0.00 86 1016.0
20260904052503 22 206 1.6 1.6 0.00 0.00 0.00 85 1016.1
20260904052003 22 206 0.0 3.2 0.00 0.00 0.00 85 1016.0
20260904051504 22 206 0.0 3.2 0.00 0.00 0.00 86 1016.1
20260904051003 22 206 0.0 4.8 0.00 0.00 0.00 86 1016.0
20260904050504 22 202 1.6 4.8 0.00 0.00 0.00 86 1016.0
20260904050003 22 180 0.0 3.2 0.00 0.00 0.00 86 1016.1
20260904045505 22 180 0.0 4.8 0.00 0.00 0.00 86 1016.0
20260904045003 22 190 0.0 4.8 0.00 0.00 0.00 86 1016.0
20260904044504 22 190 1.6 4.8 0.00 0.00 0.00 86 1016.0
20260904044003 22 205 1.6 3.2 0.00 0.00 0.00 87 1016.0
20260904043502 22 205 0.0 3.2 0.00 0.00 0.00 86 1015.9
20260904043003 22 205 0.0 3.2 0.00 0.00 0.00 86 1016.0
20260904042504 22 205 0.0 3.2 0.00 0.00 0.00 86 1015.9
20260904042003 22 205 0.0 3.2 0.00 0.00 0.00 86 1016.0
20260904041508 22 205 0.0 3.2 0.00 0.00 0.00 85 1016.0
20260904041002 22 205 0.0 3.2 0.00 0.00 0.00 85 1015.9
20260904040502 22 205 0.0 3.2 0.00 0.00 0.00 85 1015.9
20260904040004 22 205 1.6 3.2 0.00 0.00 0.00 85 1015.9
20260904035506 22 205 1.6 1.6 0.00 0.00 0.00 84 1015.8
20260904035003 22 135 0.0 3.2 0.00 0.00 0.00 84 1015.8
20260904034503 22 135 1.6 3.2 0.00 0.00 0.00 84 1015.8
20260904034003 22 135 0.0 1.6 0.00 0.00 0.00 84 1015.8
20260904033503 22 135 0.0 3.2 0.00 0.00 0.00 84 1015.8
20260904033003 22 135 1.6 3.2 0.00 0.00 0.00 84 1015.9
20260904032503 23 135 0.0 4.8 0.00 0.00 0.00 85 1016.0
20260904032003 23 135 1.6 4.8 0.00 0.00 0.00 84 1016.1
20260904031504 23 142 3.2 4.8 0.00 0.00 0.00 84 1016.0
20260904031004 23 123 0.0 3.2 0.00 0.00 0.00 84 1016.1
20260904030503 23 123 1.6 3.2 0.00 0.00 0.00 84 1016.1
20260904030007 23 120 0.0 3.2 0.00 0.00 0.00 84 1016.0
20260904025503 23 120 1.6 4.8 0.00 0.00 0.00 84 1016.0
20260904025003 23 138 1.6 4.8 0.00 0.00 0.00 84 1016.1
20260904024503 23 142 3.2 4.8 0.00 0.00 0.00 84 1016.1
20260904024003 23 143 1.6 3.2 0.00 0.00 0.00 85 1016.2
20260904023505 23 144 1.6 6.4 0.00 0.00 0.00 85 1016.2
20260904023008 23 144 3.2 6.4 0.00 0.00 0.00 85 1016.3
20260904022505 23 135 3.2 4.8 0.00 0.00 0.00 86 1016.3
20260904022002 23 141 1.6 3.2 0.00 0.00 0.00 87 1016.3
20260904021512 23 69 1.6 4.8 0.00 0.00 0.00 86 1016.3
20260904021003 23 69 1.6 4.8 0.00 0.00 0.00 86 1016.4
20260904020503 23 74 3.2 4.8 0.00 0.00 0.00 85 1016.3
20260904020004 23 132 1.6 4.8 0.00 0.00 0.00 85 1016.3
20260904015503 23 134 3.2 3.2 0.00 0.00 0.00 85 1016.4
20260904015003 23 70 0.0 3.2 0.00 0.00 0.00 84 1016.3
20260904014505 23 70 0.0 4.8 0.00 0.00 0.00 84 1016.3
20260904014003 23 70 1.6 4.8 0.00 0.00 0.00 84 1016.4
20260904013504 23 98 0.0 3.2 0.00 0.00 0.00 83 1016.4
20260904013004 23 139 0.0 3.2 0.00 0.00 0.00 82 1016.3
20260904012504 23 162 1.6 4.8 0.00 0.00 0.00 83 1016.1
20260904012004 23 155 1.6 4.8 0.00 0.00 0.00 84 1016.0
20260904011506 23 140 1.6 4.8 0.00 0.00 0.00 84 1016.1
20260904011003 23 214 1.6 3.2 0.00 0.00 0.00 83 1016.2
20260904010505 23 215 1.6 3.2 0.00 0.00 0.00 82 1016.2
20260904010004 23 217 1.6 3.2 0.00 0.00 0.00 82 1016.0
20260904005504 23 283 1.6 3.2 0.00 0.00 0.00 81 1016.1
20260904005003 23 64 0.0 3.2 0.00 0.00 0.00 82 1016.0
20260904004504 23 63 0.0 4.8 0.00 0.00 0.00 81 1016.0
20260904004005 23 63 1.6 6.4 0.00 0.00 0.00 81 1015.8
20260904003503 23 74 3.2 8.0 0.00 0.00 0.00 81 1015.9
20260904003006 24 72 4.8 8.0 0.00 0.00 0.00 80 1015.8
20260904002504 24 57 3.2 8.0 0.00 0.00 0.00 79 1016.0
20260904002004 24 65 4.8 11.3 0.00 0.00 0.00 78 1015.8
20260904001503 25 59 1.6 16.1 0.00 0.00 0.00 78 1015.9
20260904001003 25 57 6.4 16.1 0.00 0.00 0.00 77 1015.8
20260904000506 25 59 8.0 14.5 0.00 0.00 0.00 76 1016.0
20260904000007 25 74 9.7 17.7 0.00 0.00 0.00 75 1015.9
20260903235504 26 61 8.0 17.7 0.00 0.00 0.00 75 1015.9
20260903235004 26 65 6.4 22.5 0.00 0.00 0.00 73 1015.7
20260903234510 26 75 12.9 22.5 0.00 0.00 0.00 71 1015.6
20260903234004 27 47 8.0 16.1 0.00 0.00 0.00 69 1016.0
20260903233505 29 45 8.0 16.1 0.00 0.00 0.00 63 1015.9
20260903233007 31 51 3.2 4.8 0.00 0.00 0.00 63 1015.6
20260903232504 32 213 0.0 3.2 0.00 0.00 0.00 60 1015.2
20260903232004 32 205 0.0 3.2 0.00 0.00 0.00 60 1015.0
20260903231506 32 252 0.0 3.2 0.00 0.00 0.00 59 1014.8
20260903231003 33 223 1.6 3.2 0.00 0.00 0.00 58 1014.8
20260903230503 33 230 1.6 4.8 0.00 0.00 0.00 57 1014.7
20260903230010 33 254 1.6 4.8 0.00 0.00 0.00 56 1014.7
20260903225505 33 205 1.6 3.2 0.00 0.00 0.00 57 1014.6
20260903225003 33 236 1.6 4.8 0.00 0.00 0.00 56 1014.7
20260903224507 33 217 1.6 4.8 0.00 0.00 0.00 55 1014.7
20260903224003 33 265 1.6 8.0 0.00 0.00 0.00 54 1014.7
20260903223502 33 240 3.2 8.0 0.00 0.00 0.00 54 1014.6
20260903223008 33 211 3.2 14.5 0.00 0.00 0.00 52 1014.5
20260903222503 33 315 1.6 14.5 0.00 0.00 0.00 53 1014.5
20260903222004 33 215 3.2 14.5 0.00 0.00 0.00 54 1014.5
20260903221512 33 211 3.2 14.5 0.00 0.00 0.00 53 1014.5
20260903221004 33 230 6.4 12.9 0.00 0.00 0.00 52 1014.6
20260903220505 33 215 4.8 11.3 0.00 0.00 0.00 53 1014.5
20260903220009 33 329 3.2 12.9 0.00 0.00 0.00 52 1014.4
20260903215504 33 313 3.2 12.9 0.00 0.00 0.00 52 1014.4
20260903215006 33 274 4.8 14.5 0.00 0.00 0.00 53 1014.4
20260903214506 34 306 6.4 14.5 0.00 0.00 0.00 51 1014.3
20260903214003 34 320 4.8 12.9 0.00 0.00 0.00 51 1014.3
20260903213503 34 305 4.8 12.9 0.00 0.00 0.00 51 1014.2
20260903213018 34 232 3.2 16.1 0.00 0.00 0.00 52 1014.1
20260903212503 34 216 4.8 20.9 0.00 0.00 0.00 52 1014.2
20260903212003 34 308 6.4 14.5 0.00 0.00 0.00 49 1014.3
20260903211508 34 208 6.4 14.5 0.00 0.00 0.00 50 1014.2
20260903211005 34 218 3.2 12.9 0.00 0.00 0.00 51 1014.2
20260903210504 34 184 4.8 12.9 0.00 0.00 0.00 52 1014.2
20260903210014 34 267 6.4 12.9 0.00 0.00 0.00 51 1014.2
20260903205503 34 242 4.8 16.1 0.00 0.00 0.00 52 1014.2
20260903205003 34 219 6.4 17.7 0.00 0.00 0.00 50 1014.3
20260903204509 34 318 4.8 17.7 0.00 0.00 0.00 50 1014.3
20260903204003 34 268 6.4 14.5 0.00 0.00 0.00 52 1014.2
20260903203507 34 5 4.8 12.9 0.00 0.00 0.00 50 1014.1
20260903203019 34 9 6.4 16.1 0.00 0.00 0.00 51 1014.1
20260903202504 34 205 9.7 16.1 0.00 0.00 0.00 53 1014.1
20260903202003 34 192 8.0 16.1 0.00 0.00 0.00 51 1014.1
20260903201507 34 222 4.8 16.1 0.00 0.00 0.00 52 1014.2
20260903201002 34 288 6.4 16.1 0.00 0.00 0.00 51 1014.2
20260903200504 34 331 6.4 16.1 0.00 0.00 0.00 52 1014.3
20260903200015 34 189 4.8 12.9 0.00 0.00 0.00 53 1014.5
20260903195504 34 218 4.8 12.9 0.00 0.00 0.00 52 1014.6
20260903195003 33 31 4.8 11.3 0.00 0.00 0.00 53 1014.7
20260903194532 33 350 6.4 11.3 0.00 0.00 0.00 55 1014.8
20260903194008 33 221 6.4 11.3 0.00 0.00 0.00 54 1014.9
20260903193503 34 210 4.8 12.9 0.00 0.00 0.00 53 1015.2
20260903193010 34 298 4.8 17.7 0.00 0.00 0.00 55 1015.2
20260903192505 34 208 6.4 17.7 0.00 0.00 0.00 52 1015.3
20260903192003 33 205 4.8 12.9 0.00 0.00 0.00 53 1015.5
20260903191512 33 298 8.0 12.9 0.00 0.00 0.00 53 1015.6
20260903191005 33 300 4.8 14.5 0.00 0.00 0.00 53 1015.6
20260903190503 33 306 4.8 14.5 0.00 0.00 0.00 53 1015.7
20260903190011 33 215 6.4 14.5 0.00 0.00 0.00 52 1015.7
20260903185508 33 311 6.4 14.5 0.00 0.00 0.00 54 1015.8
20260903185007 33 281 6.4 14.5 0.00 0.00 0.00 55 1015.8
20260903184513 33 296 4.8 12.9 0.00 0.00 0.00 55 1015.8
20260903184003 33 199 3.2 12.9 0.00 0.00 0.00 54 1015.9
20260903183505 33 227 4.8 12.9 0.00 0.00 0.00 54 1015.9
20260903183018 33 174 6.4 16.1 0.00 0.00 0.00 55 1015.9
20260903182508 33 230 4.8 16.1 0.00 0.00 0.00 54 1015.9
20260903182008 33 210 6.4 14.5 0.00 0.00 0.00 56 1015.9
20260903181511 33 311 4.8 12.9 0.00 0.00 0.00 56 1015.9
20260903181007 33 209 6.4 12.9 0.00 0.00 0.00 55 1015.9
20260903180506 33 201 4.8 11.3 0.00 0.00 0.00 58 1016.0
20260903180029 33 338 3.2 12.9 0.00 0.00 0.00 60 1015.9
20260903175507 33 214 4.8 12.9 0.00 0.00 0.00 58 1016.0
20260903175007 33 219 3.2 12.9 0.00 0.00 0.00 59 1016.0
20260903174515 33 183 6.4 12.9 0.00 0.00 0.00 58 1016.1
20260903174007 33 224 4.8 11.3 0.00 0.00 0.00 58 1016.1
20260903173507 33 226 4.8 11.3 0.00 0.00 0.00 57 1016.1
20260903173014 33 201 4.8 11.3 0.00 0.00 0.00 58 1016.2
20260903172506 32 212 4.8 12.9 0.00 0.00 0.00 60 1016.2
20260903172006 32 248 3.2 12.9 0.00 0.00 0.00 59 1016.2
20260903171516 32 210 4.8 14.5 0.00 0.00 0.00 59 1016.3
20260903171007 32 313 3.2 14.5 0.00 0.00 0.00 59 1016.3
20260903170507 32 239 3.2 12.9 0.00 0.00 0.00 59 1016.4
20260903170013 32 210 4.8 12.9 0.00 0.00 0.00 60 1016.5
20260903165506 32 200 4.8 11.3 0.00 0.00 0.00 58 1016.5
20260903165014 32 259 4.8 11.3 0.00 0.00 0.00 59 1016.6
20260903164514 32 215 4.8 11.3 0.00 0.00 0.00 60 1016.6
20260903164008 32 219 3.2 16.1 0.00 0.00 0.00 61 1016.6
20260903163506 32 200 3.2 16.1 0.00 0.00 0.00 61 1016.6
20260903163023 32 296 4.8 16.1 0.00 0.00 0.00 59 1016.7
20260903162507 32 246 6.4 16.1 0.00 0.00 0.00 61 1016.7
20260903162010 32 203 6.4 12.9 0.00 0.00 0.00 61 1016.8
20260903161515 32 273 4.8 11.3 0.00 0.00 0.00 61 1016.9
20260903161007 31 288 4.8 11.3 0.00 0.00 0.00 62 1017.0
20260903160512 31 211 4.8 11.3 0.00 0.00 0.00 62 1016.9
20260903160016 31 297 3.2 9.7 0.00 0.00 0.00 63 1016.9
20260903155509 31 207 3.2 12.9 0.00 0.00 0.00 63 1017.0
20260903155006 31 244 6.4 12.9 0.00 0.00 0.00 63 1017.1
20260903154518 31 210 6.4 11.3 0.00 0.00 0.00 62 1017.0
20260903154007 31 243 3.2 11.3 0.00 0.00 0.00 65 1016.9
20260903153508 31 320 3.2 12.9 0.00 0.00 0.00 64 1016.9
20260903153020 30 230 6.4 12.9 0.00 0.00 0.00 63 1017.0
20260903152508 30 201 6.4 14.5 0.00 0.00 0.00 64 1017.0
20260903152008 30 212 3.2 14.5 0.00 0.00 0.00 66 1017.0
20260903151525 30 217 4.8 12.9 0.00 0.00 0.00 66 1016.9
20260903151009 30 225 4.8 12.9 0.00 0.00 0.00 65 1016.8
20260903150510 30 288 4.8 12.9 0.00 0.00 0.00 66 1016.9
20260903150020 30 246 4.8 14.5 0.00 0.00 0.00 66 1016.8
20260903145511 30 207 4.8 14.5 0.00 0.00 0.00 67 1016.8
20260903145010 30 208 3.2 8.0 0.00 0.00 0.00 68 1016.8
20260903144519 30 237 4.8 14.5 0.00 0.00 0.00 67 1016.7
20260903144004 29 219 3.2 14.5 0.00 0.00 0.00 68 1016.7
20260903143508 29 236 4.8 11.3 0.00 0.00 0.00 70 1016.8
20260903143014 29 223 4.8 11.3 0.00 0.00 0.00 68 1016.7
20260903142506 29 243 3.2 9.7 0.00 0.00 0.00 70 1016.7
20260903142008 28 210 3.2 9.7 0.00 0.00 0.00 71 1016.6
20260903141522 28 229 4.8 9.7 0.00 0.00 0.00 71 1016.7
20260903141015 28 235 4.8 11.3 0.00 0.00 0.00 70 1016.8
20260903140502 28 179 4.8 11.3 0.00 0.00 0.00 70 1016.7
20260903140003 28 209 4.8 9.7 0.00 0.00 0.00 70 1016.8